When you browse on this site, cookies collect data to enhance your experience and personalize the content and advertising you see.
Visit our Privacy Policy to learn more. By continuing to use the site, you agree to this use of cookies and data.
  • In Latvia
  • List of Countries
  • For 7 days
  • Water Temperature
  • Satellite Maps
  • Weather Map
  • Weather Widgets
  • user-avatar
    Login

    Hourly Weather Kalat

    Today, 18 June, Tuesday

    Time Temperature Precipitation Wind Pressure Humidity
    00:00 +3°C° 0 mm 1 mps 474 mmHg 81%
    01:00 +2°C° 0 mm 1 mps 474 mmHg 81%
    02:00 +2°C° 0 mm 1 mps 473 mmHg 82%
    03:00 +2°C° 0 mm 1 mps 473 mmHg 82%
    04:00 +2°C° 0 mm 1 mps 473 mmHg 81%
    05:00 -2°C° 0 mm 2 mps 472 mmHg 78%
    06:00 -1°C° 0 mm 2 mps 473 mmHg 76%
    07:00 +1°C° 0 mm 2 mps 474 mmHg 75%
    08:00 +2°C° 0 mm 2 mps 474 mmHg 74%
    09:00 +3°C° 0 mm 2 mps 475 mmHg 72%
    10:00 +4°C° 0 mm 2 mps 475 mmHg 69%
    11:00 +5°C° 0 mm 2 mps 476 mmHg 67%
    12:00 +5°C° 0 mm 2 mps 476 mmHg 65%
    13:00 +6°C° 0 mm 2 mps 476 mmHg 63%
    14:00 +6°C° 0 mm 2 mps 477 mmHg 62%
    15:00 +6°C° 0.2 mm 2 mps 476 mmHg 62%
    16:00 +6°C° 0.2 mm 2 mps 476 mmHg 63%
    17:00 +6°C° 0 mm 2 mps 476 mmHg 61%
    18:00 +5°C° 0.1 mm 2 mps 475 mmHg 64%
    19:00 +4°C° 0.1 mm 2 mps 475 mmHg 66%
    20:00 +4°C° 0.1 mm 2 mps 474 mmHg 68%
    21:00 +3°C° 0 mm 2 mps 474 mmHg 69%
    22:00 +3°C° 0 mm 2 mps 474 mmHg 70%
    23:00 +2°C° 0 mm 2 mps 474 mmHg 71%

    Tomorrow, 19 June, Wednesday

    Time Temperature Precipitation Wind Pressure Humidity
    00:00 +2°C° 0 mm 2 mps 474 mmHg 72%
    01:00 +2°C° 0 mm 1 mps 473 mmHg 73%
    02:00 +2°C° 0 mm 1 mps 473 mmHg 74%
    03:00 +1°C° 0 mm 1 mps 473 mmHg 74%
    04:00 +1°C° 0 mm 1 mps 473 mmHg 74%
    05:00 +1°C° 0 mm 1 mps 473 mmHg 75%
    06:00 +2°C° 0 mm 1 mps 473 mmHg 69%
    07:00 +3°C° 0 mm 1 mps 474 mmHg 64%
    08:00 +4°C° 0 mm 1 mps 474 mmHg 58%
    09:00 +5°C° 0 mm 1 mps 475 mmHg 53%
    10:00 +6°C° 0 mm 1 mps 476 mmHg 48%
    11:00 +7°C° 0 mm 1 mps 477 mmHg 43%
    12:00 +8°C° 0 mm 1 mps 477 mmHg 42%
    13:00 +9°C° 0 mm 1 mps 478 mmHg 40%
    14:00 +10°C° 0 mm 1 mps 478 mmHg 39%
    15:00 +9°C° 0 mm 2 mps 478 mmHg 41%
    16:00 +9°C° 0 mm 2 mps 478 mmHg 42%
    17:00 +9°C° 0 mm 2 mps 478 mmHg 44%
    18:00 +8°C° 0.3 mm 2 mps 477 mmHg 49%
    19:00 +6°C° 0.3 mm 2 mps 476 mmHg 55%
    20:00 +5°C° 0.3 mm 2 mps 476 mmHg 61%
    21:00 +6°C° 0 mm 1 mps 476 mmHg 63%
    22:00 +6°C° 0 mm 1 mps 476 mmHg 66%
    23:00 +5°C° 0 mm 1 mps 476 mmHg 68%

    Day after tomorrow, 20 June, Thursday

    Time Temperature Precipitation Wind Pressure Humidity
    00:00 +5°C° 0 mm 1 mps 475 mmHg 69%
    01:00 +4°C° 0 mm 1 mps 475 mmHg 70%
    02:00 +4°C° 0 mm 1 mps 475 mmHg 72%
    03:00 +4°C° 0 mm 1 mps 475 mmHg 73%
    04:00 +3°C° 0 mm 1 mps 474 mmHg 74%
    05:00 +3°C° 0 mm 1 mps 474 mmHg 75%
    06:00 +4°C° 0 mm 1 mps 475 mmHg 71%
    07:00 +5°C° 0 mm 1 mps 475 mmHg 66%
    08:00 +6°C° 0 mm 1 mps 476 mmHg 61%
    09:00 +7°C° 0 mm 1 mps 477 mmHg 56%
    10:00 +8°C° 0 mm 1 mps 478 mmHg 51%
    11:00 +9°C° 0 mm 1 mps 478 mmHg 46%
    12:00 +9°C° 0.2 mm 1 mps 479 mmHg 45%
    13:00 +9°C° 0.2 mm 2 mps 479 mmHg 45%
    14:00 +9°C° 0.2 mm 3 mps 479 mmHg 45%
    15:00 +9°C° 0.5 mm 2 mps 478 mmHg 50%
    16:00 +8°C° 0.5 mm 2 mps 478 mmHg 54%
    17:00 +7°C° 0.5 mm 2 mps 477 mmHg 58%
    18:00 +7°C° 0.2 mm 2 mps 477 mmHg 60%
    19:00 +6°C° 0.2 mm 2 mps 477 mmHg 62%
    20:00 +6°C° 0.2 mm 2 mps 477 mmHg 64%
    21:00 +6°C° 0.1 mm 1 mps 477 mmHg 67%
    22:00 +6°C° 0.1 mm 1 mps 477 mmHg 69%
    23:00 +6°C° 0.1 mm 1 mps 477 mmHg 72%

    21 June, Friday

    Time Temperature Precipitation Wind Pressure Humidity
    00:00 +5°C° 0 mm 1 mps 476 mmHg 73%
    01:00 +5°C° 0 mm 1 mps 476 mmHg 75%
    02:00 +4°C° 0 mm 0 mps 476 mmHg 77%
    03:00 +3°C° 0 mm 0 mps 476 mmHg 78%
    04:00 +3°C° 0 mm 0 mps 475 mmHg 80%
    05:00 +3°C° 0 mm 0 mps 475 mmHg 81%
    06:00 +4°C° 0 mm 0 mps 476 mmHg 75%
    07:00 +5°C° 0 mm 0 mps 477 mmHg 68%
    08:00 +6°C° 0 mm 1 mps 477 mmHg 62%
    09:00 +8°C° 0 mm 1 mps 478 mmHg 55%
    10:00 +9°C° 0 mm 1 mps 479 mmHg 49%
    11:00 +10°C° 0 mm 1 mps 479 mmHg 42%
    12:00 +11°C° 0.1 mm 1 mps 480 mmHg 42%
    13:00 +11°C° 0.1 mm 1 mps 480 mmHg 41%
    14:00 +12°C° 0.1 mm 2 mps 480 mmHg 40%
    15:00 +10°C° 0.2 mm 2 mps 479 mmHg 44%
    16:00 +10°C° 0.2 mm 3 mps 479 mmHg 49%
    17:00 +9°C° 0.2 mm 3 mps 479 mmHg 53%
    18:00 +9°C° 0.1 mm 3 mps 478 mmHg 55%
    19:00 +8°C° 0.1 mm 2 mps 478 mmHg 58%
    20:00 +7°C° 0.1 mm 2 mps 478 mmHg 60%
    21:00 +7°C° 0 mm 2 mps 478 mmHg 63%
    22:00 +8°C° 0 mm 1 mps 478 mmHg 66%
    23:00 +7°C° 0 mm 1 mps 478 mmHg 68%

    22 June, Saturday

    Time Temperature Precipitation Wind Pressure Humidity
    00:00 +7°C° 0 mm 1 mps 477 mmHg 71%
    01:00 +6°C° 0 mm 1 mps 477 mmHg 73%
    02:00 +6°C° 0 mm 1 mps 476 mmHg 75%
    03:00 +5°C° 0 mm 1 mps 476 mmHg 77%
    04:00 +5°C° 0 mm 1 mps 476 mmHg 78%
    05:00 +5°C° 0 mm 1 mps 475 mmHg 80%
    06:00 +6°C° 0 mm 1 mps 476 mmHg 73%
    07:00 +7°C° 0 mm 1 mps 477 mmHg 67%
    08:00 +7°C° 0 mm 1 mps 478 mmHg 60%
    09:00 +9°C° 0 mm 1 mps 479 mmHg 55%
    10:00 +10°C° 0 mm 1 mps 479 mmHg 49%
    11:00 +11°C° 0 mm 1 mps 480 mmHg 44%
    12:00 +9°C° 0.4 mm 2 mps 479 mmHg 51%
    13:00 +9°C° 0.4 mm 2 mps 479 mmHg 58%
    14:00 +8°C° 0.4 mm 3 mps 478 mmHg 65%
    15:00 +8°C° 0.7 mm 2 mps 478 mmHg 68%
    16:00 +8°C° 0.7 mm 2 mps 478 mmHg 70%
    17:00 +8°C° 0.7 mm 2 mps 478 mmHg 72%
    18:00 +7°C° 0.1 mm 2 mps 478 mmHg 71%
    19:00 +7°C° 0.1 mm 2 mps 478 mmHg 69%
    20:00 +7°C° 0.1 mm 2 mps 478 mmHg 68%
    21:00 +7°C° 0 mm 2 mps 478 mmHg 69%
    22:00 +6°C° 0 mm 2 mps 478 mmHg 71%
    23:00 +6°C° 0 mm 2 mps 478 mmHg 72%

    23 June, Sunday

    Time Temperature Precipitation Wind Pressure Humidity
    00:00 +5°C° 0 mm 2 mps 477 mmHg 74%
    01:00 +6°C° 0 mm 1 mps 477 mmHg 75%
    02:00 +5°C° 0 mm 1 mps 476 mmHg 77%
    03:00 +5°C° 0 mm 1 mps 476 mmHg 78%
    04:00 +4°C° 0 mm 1 mps 476 mmHg 80%
    05:00 +4°C° 0 mm 1 mps 475 mmHg 81%
    06:00 +5°C° 0 mm 1 mps 476 mmHg 75%
    07:00 +5°C° 0 mm 1 mps 477 mmHg 69%
    08:00 +6°C° 0 mm 1 mps 477 mmHg 63%
    09:00 +8°C° 0 mm 1 mps 478 mmHg 56%
    10:00 +9°C° 0 mm 1 mps 479 mmHg 50%
    11:00 +10°C° 0 mm 1 mps 480 mmHg 43%
    12:00 +11°C° 0 mm 1 mps 480 mmHg 41%
    13:00 +12°C° 0 mm 2 mps 480 mmHg 39%
    14:00 +13°C° 0 mm 2 mps 481 mmHg 38%
    15:00 +12°C° 0.3 mm 2 mps 480 mmHg 44%
    16:00 +10°C° 0.3 mm 2 mps 479 mmHg 49%
    17:00 +10°C° 0.3 mm 2 mps 479 mmHg 55%
    18:00 +9°C° 0.3 mm 2 mps 478 mmHg 58%
    19:00 +8°C° 0.3 mm 2 mps 478 mmHg 60%
    20:00 +9°C° 0.3 mm 1 mps 478 mmHg 63%
    21:00 +8°C° 0 mm 1 mps 478 mmHg 66%
    22:00 +7°C° 0 mm 2 mps 478 mmHg 68%
    23:00 +6°C° 0 mm 2 mps 478 mmHg 70%
    Show more